Japanese version Home page |
Updated on November 20, 2022 |
Profile
|
Orbital ElementsEpoch 2004 Aug. 23.0 TT = JDT 2453240.5 T 2004 Aug. 25.84078 TT MPC q 5.4625300 (2000.0) P Q n 0.04442124 Peri. 20.48509 -0.82154748 -0.55008028 a 7.8960325 Node 125.24595 +0.49421058 -0.81817960 e 0.3081931 Incl. 10.57680 +0.28428091 -0.16731356 P 22.2 From 471 observations 2003 Oct. 25-2007 Aug. 7, mean residual 0".6.
|
Finding Charts
|
Magnitudes Graphm1 = -0.5 + 5 log d + 20 log r(t - 200)
|
The orbital elements are published on M.P.E.C. 2013-A29.
|